STARLINK-36178 (67025 NORAD) Tracking and Keplerian Element Data

This shows tracking and keplerian element data for the satellite.

Feedback or suggestion? Click here.




ElementValue
Catalog67025
NameSTARLINK-36178
Epoch Orbit143
Epoch Day354.25003472
Epoch Year2025
RAAN301.9252
Inclination69.9936
Eccentricity0.0003972
Argument of Perigee271.5762
Mean Anonmoly347.4495
Mean Motion15.93037965
Decay Rate-0.01312238
L11 67025U 25293Y 25354.25003472 -.01312238 50431-3 -37547-2 0 9999
L22 67025 69.9936 301.9252 0003972 271.5762 347.4495 15.93037965 1439



Live tracking and technical data element details for STARLINK-36178 (NORAD 67025). STARLINK-36178 can be tracked NOW for your location showing map with azimuth and elevation plus other details from your city location.







IsCatalogInMostPopularTable: catalog: 67025, numindb: 42
Update: records affected: 1



GetName: 67025 STARLINK-36178

Hit Count: updated at: Tue, 17 Feb 2026 12:47:36 GMT